Total_Precipitation_Accumulation
1.79 1.91 1.87 1.82 1.82 1.80 1.68 1.60 1.61 1.59 1.57 1.64 1.68 1.80 1.93 2.15 2.36 2.50 2.48 2.42 2.40 2.35 2.26 2.38 2.53 2.59 2.73 2.79 2.83 2.76 2.66 2.63 2.52 2.21 2.00 1.93 2.16 2.22 2.18 2.10 1.93 1.89 1.86
1.65 1.77 1.88 1.80 1.75 1.73 1.63 1.68 1.60 1.51 1.50 1.49 1.58 1.77 1.88 1.95 2.04 2.12 2.16 2.19 2.21 2.23 2.17 2.13 2.21 2.30 2.42 2.60 2.74 2.72 2.73 2.65 2.61 2.54 2.29 2.03 1.98 2.09 2.18 2.32 2.18 1.93 1.89
1.81 1.95 1.96 1.86 1.79 1.78 1.67 1.75 1.63 1.51 1.50 1.48 1.48 1.61 1.70 1.79 1.86 1.91 2.02 2.11 2.13 2.05 2.04 1.93 1.90 2.01 2.14 2.30 2.39 2.51 2.66 2.71 2.75 2.69 2.57 2.33 2.07 2.10 2.20 2.28 2.29 2.35 2.08
2.00 2.10 1.98 1.88 1.80 1.75 1.64 1.61 1.58 1.52 1.47 1.49 1.59 1.62 1.65 1.66 1.79 1.85 1.92 1.92 1.88 1.78 1.75 1.68 1.66 1.71 1.85 2.05 2.16 2.38 2.63 2.76 2.81 2.79 2.71 2.43 2.21 2.17 2.16 2.25 2.39 2.45 2.39
1.87 1.89 1.89 1.77 1.63 1.57 1.60 1.43 1.43 1.51 1.51 1.52 1.58 1.63 1.65 1.65 1.72 1.84 1.78 1.67 1.66 1.65 1.58 1.40 1.35 1.46 1.54 1.68 1.67 1.95 2.28 2.55 2.63 2.68 2.65 2.48 2.22 2.12 1.96 2.03 2.22 2.41 2.44
1.72 1.67 1.67 1.64 1.61 1.54 1.48 1.41 1.36 1.37 1.42 1.44 1.45 1.59 1.68 1.56 1.79 1.83 1.64 1.44 1.41 1.47 1.44 1.31 1.24 1.29 1.27 1.28 1.32 1.57 1.90 2.09 2.26 2.42 2.47 2.32 2.13 2.03 2.08 2.08 2.10 2.16 2.19
1.54 1.47 1.36 1.36 1.39 1.39 1.37 1.40 1.39 1.36 1.36 1.38 1.33 1.43 1.48 1.57 1.67 1.51 1.50 1.37 1.35 1.33 1.35 1.38 1.27 1.19 1.34 1.20 1.19 1.30 1.39 1.54 1.70 1.95 2.15 2.11 2.21 2.13 2.04 1.94 1.95 1.97 1.99
1.40 1.42 1.34 1.26 1.25 1.27 1.28 1.33 1.40 1.34 1.30 1.32 1.28 1.22 1.29 1.44 1.49 1.33 1.40 1.29 1.36 1.39 1.40 1.49 1.48 1.37 1.36 1.48 1.40 1.39 1.33 1.28 1.42 1.34 1.48 1.86 2.03 2.15 2.13 2.14 2.24 2.14 1.94
1.10 1.17 1.19 1.13 1.17 1.26 1.24 1.35 1.42 1.31 1.27 1.23 1.23 1.18 1.20 1.26 1.31 1.22 1.26 1.25 1.37 1.37 1.31 1.45 1.52 1.43 1.56 1.72 1.74 1.73 1.64 1.46 1.61 1.65 1.53 1.63 1.83 1.92 2.03 2.09 2.12 2.06 1.95
0.88 0.90 0.98 1.04 1.10 1.19 1.30 1.39 1.38 1.33 1.29 1.19 1.18 1.13 1.09 1.08 1.21 1.09 1.18 1.22 1.31 1.33 1.34 1.39 1.62 1.53 1.55 1.56 1.58 1.68 1.64 1.45 1.32 1.33 1.31 1.24 1.20 1.33 1.59 1.67 1.95 2.10 2.03
0.80 0.85 0.89 0.92 1.01 1.18 1.31 1.30 1.24 1.22 1.23 1.20 1.18 1.10 1.04 1.08 1.21 1.22 1.25 1.21 1.27 1.33 1.44 1.48 1.48 1.65 1.50 1.45 1.43 1.38 1.48 1.48 1.47 1.50 1.52 1.40 1.31 1.28 1.30 1.35 1.58 1.86 2.03
0.69 0.78 0.78 0.79 0.85 0.97 1.07 1.17 1.17 1.16 1.17 1.10 1.06 1.04 0.97 1.04 1.11 1.12 1.16 1.18 1.28 1.23 1.26 1.29 1.29 1.47 1.32 1.26 1.19 1.22 1.36 1.43 1.49 1.64 1.62 1.51 1.45 1.39 1.37 1.39 1.46 1.57 1.67
0.68 0.75 0.73 0.71 0.74 0.83 0.95 1.07 1.17 1.20 1.15 1.07 0.95 0.89 0.87 0.88 0.95 1.01 1.00 0.99 1.06 1.07 1.03 1.21 1.25 1.25 1.19 1.09 1.15 1.21 1.24 1.25 1.37 1.49 1.50 1.41 1.39 1.46 1.49 1.47 1.50 1.55 1.52
0.64 0.72 0.76 0.76 0.78 0.79 0.86 0.95 1.10 1.17 1.09 0.96 0.92 0.89 0.89 0.88 0.85 0.86 0.90 0.88 0.90 0.97 0.98 1.10 1.16 1.11 1.08 1.06 1.10 1.14 1.16 1.22 1.31 1.34 1.33 1.35 1.36 1.43 1.53 1.51 1.53 1.61 1.67
0.61 0.66 0.67 0.72 0.78 0.79 0.77 0.79 0.90 0.96 1.04 1.07 1.01 0.98 0.99 0.96 0.89 0.86 0.82 0.85 0.89 0.99 1.10 1.07 1.06 1.04 1.03 1.06 1.07 1.07 1.13 1.20 1.22 1.19 1.26 1.31 1.32 1.37 1.41 1.42 1.47 1.53 1.55
0.61 0.65 0.68 0.70 0.75 0.75 0.74 0.79 0.82 0.86 0.99 1.02 1.03 1.02 0.89 0.83 0.84 0.80 0.77 0.82 0.91 1.02 1.16 1.19 1.21 1.25 1.26 1.23 1.19 1.09 1.05 1.09 1.15 1.24 1.30 1.32 1.33 1.32 1.35 1.37 1.41 1.51 1.51
0.70 0.71 0.73 0.74 0.72 0.71 0.76 0.83 0.84 0.79 0.78 0.79 0.82 0.83 0.82 0.84 0.79 0.77 0.77 0.83 0.91 1.00 1.13 1.26 1.27 1.24 1.20 1.17 1.13 1.08 1.01 0.97 1.01 1.14 1.29 1.40 1.41 1.41 1.45 1.49 1.47 1.43 1.41
0.88 0.94 0.88 0.80 0.76 0.73 0.75 0.82 0.86 0.90 0.84 0.71 0.70 0.76 0.78 0.79 0.79 0.81 0.91 1.01 0.99 1.00 1.07 1.15 1.16 1.14 1.10 1.05 0.99 0.96 0.96 0.95 0.97 1.02 1.07 1.18 1.36 1.46 1.54 1.57 1.59 1.62 1.61
0.84 0.93 0.94 0.90 0.85 0.83 0.86 0.93 0.92 0.85 0.82 0.80 0.73 0.74 0.78 0.82 0.85 0.86 0.89 0.91 0.91 0.92 0.94 0.95 0.94 0.92 0.91 0.91 0.90 0.94 1.00 0.98 0.98 1.01 1.02 1.05 1.15 1.31 1.48 1.58 1.63 1.72 1.68
0.70 0.84 0.94 0.97 0.95 0.93 0.96 0.99 0.97 0.89 0.80 0.80 0.77 0.74 0.75 0.76 0.75 0.78 0.76 0.79 0.86 0.88 0.86 0.87 0.90 0.89 0.85 0.85 0.88 0.93 1.01 1.04 1.01 1.04 1.09 1.11 1.19 1.26 1.31 1.42 1.59 1.64 1.55
0.65 0.72 0.83 0.86 0.86 0.87 0.92 0.97 0.99 0.96 0.89 0.85 0.83 0.83 0.85 0.79 0.80 0.80 0.79 0.81 0.83 0.83 0.83 0.85 0.90 0.91 0.90 0.93 0.94 0.96 1.02 1.07 1.07 1.06 1.08 1.14 1.20 1.30 1.35 1.39 1.42 1.47 1.52
0.67 0.70 0.76 0.81 0.84 0.86 0.89 0.89 0.93 0.96 0.95 0.92 0.93 0.97 1.03 0.90 0.86 0.87 0.89 0.92 0.91 0.89 0.88 0.95 0.99 0.97 0.95 0.98 1.03 1.05 1.08 1.07 1.08 1.13 1.19 1.21 1.24 1.27 1.36 1.44 1.46 1.46 1.49
0.70 0.69 0.72 0.79 0.84 0.91 0.93 0.89 0.89 0.89 0.89 0.89 0.89 0.93 0.94 0.91 0.92 0.92 0.94 0.95 0.97 0.98 0.99 1.07 1.10 1.06 1.03 1.04 1.07 1.09 1.13 1.13 1.14 1.16 1.24 1.27 1.27 1.27 1.33 1.38 1.37 1.40 1.44
0.74 0.77 0.80 0.85 0.85 0.86 0.91 0.93 0.92 0.91 0.92 0.91 0.92 0.96 0.98 0.97 0.95 0.93 0.93 0.94 0.95 0.95 0.96 1.02 1.10 1.09 1.09 1.10 1.10 1.09 1.11 1.19 1.19 1.19 1.26 1.37 1.38 1.35 1.38 1.41 1.39 1.39 1.49
0.81 0.83 0.87 0.91 0.92 0.93 0.95 0.97 0.96 0.95 0.96 0.98 1.01 1.01 0.99 0.98 0.95 0.94 0.92 0.94 0.96 0.97 0.98 1.00 1.07 1.13 1.16 1.18 1.15 1.12 1.25 1.30 1.28 1.21 1.22 1.35 1.39 1.42 1.50 1.55 1.57 1.63 1.73
0.85 0.90 0.95 0.96 0.97 0.99 1.03 1.04 1.01 1.02 1.02 1.01 1.02 1.04 1.04 1.04 1.04 1.04 1.03 0.99 0.97 0.96 0.99 1.05 1.09 1.10 1.12 1.17 1.22 1.30 1.33 1.23 1.25 1.35 1.32 1.33 1.39 1.43 1.56 1.68 1.73 1.83 1.88